Index of /20260414/WXO-DD/model_gdps/15km/12/042
Name Last modified Size Description
Parent Directory -
20260414T12Z_MSC_GDPS_AbsoluteVorticity_IsbL-0200_LatLon0.15_PT042H.grib2 2026-04-14 16:14 1.2M
20260414T12Z_MSC_GDPS_AbsoluteVorticity_IsbL-0250_LatLon0.15_PT042H.grib2 2026-04-14 16:14 1.3M
20260414T12Z_MSC_GDPS_AbsoluteVorticity_IsbL-0500_LatLon0.15_PT042H.grib2 2026-04-14 16:14 1.4M
20260414T12Z_MSC_GDPS_AbsoluteVorticity_IsbL-0700_LatLon0.15_PT042H.grib2 2026-04-14 16:14 1.3M
20260414T12Z_MSC_GDPS_AbsoluteVorticity_IsbL-0850_LatLon0.15_PT042H.grib2 2026-04-14 16:14 1.6M
20260414T12Z_MSC_GDPS_AirTemp-Max_AGL-2m_LatLon0.15_PT042H.grib2 2026-04-14 16:14 745K
20260414T12Z_MSC_GDPS_AirTemp-Min_AGL-2m_LatLon0.15_PT042H.grib2 2026-04-14 16:14 909K
20260414T12Z_MSC_GDPS_AirTemp_AGL-120m_LatLon0.15_PT042H.grib2 2026-04-14 16:14 907K
20260414T12Z_MSC_GDPS_AirTemp_AGL-2m_LatLon0.15_PT042H.grib2 2026-04-14 16:14 1.0M
20260414T12Z_MSC_GDPS_AirTemp_AGL-40m_LatLon0.15_PT042H.grib2 2026-04-14 16:14 926K
20260414T12Z_MSC_GDPS_AirTemp_AGL-80m_LatLon0.15_PT042H.grib2 2026-04-14 16:14 916K
20260414T12Z_MSC_GDPS_AirTemp_IsbL-0001_LatLon0.15_PT042H.grib2 2026-04-14 16:14 639K
20260414T12Z_MSC_GDPS_AirTemp_IsbL-0005_LatLon0.15_PT042H.grib2 2026-04-14 16:14 684K
20260414T12Z_MSC_GDPS_AirTemp_IsbL-0010_LatLon0.15_PT042H.grib2 2026-04-14 16:14 755K
20260414T12Z_MSC_GDPS_AirTemp_IsbL-0020_LatLon0.15_PT042H.grib2 2026-04-14 16:14 699K
20260414T12Z_MSC_GDPS_AirTemp_IsbL-0030_LatLon0.15_PT042H.grib2 2026-04-14 16:14 750K
20260414T12Z_MSC_GDPS_AirTemp_IsbL-0050_LatLon0.15_PT042H.grib2 2026-04-14 16:14 814K
20260414T12Z_MSC_GDPS_AirTemp_IsbL-0100_LatLon0.15_PT042H.grib2 2026-04-14 16:14 944K
20260414T12Z_MSC_GDPS_AirTemp_IsbL-0150_LatLon0.15_PT042H.grib2 2026-04-14 16:14 958K
20260414T12Z_MSC_GDPS_AirTemp_IsbL-0175_LatLon0.15_PT042H.grib2 2026-04-14 16:14 945K
20260414T12Z_MSC_GDPS_AirTemp_IsbL-0200_LatLon0.15_PT042H.grib2 2026-04-14 16:14 959K
20260414T12Z_MSC_GDPS_AirTemp_IsbL-0225_LatLon0.15_PT042H.grib2 2026-04-14 16:14 965K
20260414T12Z_MSC_GDPS_AirTemp_IsbL-0250_LatLon0.15_PT042H.grib2 2026-04-14 16:14 1.0M
20260414T12Z_MSC_GDPS_AirTemp_IsbL-0275_LatLon0.15_PT042H.grib2 2026-04-14 16:14 931K
20260414T12Z_MSC_GDPS_AirTemp_IsbL-0300_LatLon0.15_PT042H.grib2 2026-04-14 16:14 947K
20260414T12Z_MSC_GDPS_AirTemp_IsbL-0350_LatLon0.15_PT042H.grib2 2026-04-14 16:14 925K
20260414T12Z_MSC_GDPS_AirTemp_IsbL-0400_LatLon0.15_PT042H.grib2 2026-04-14 16:14 935K
20260414T12Z_MSC_GDPS_AirTemp_IsbL-0450_LatLon0.15_PT042H.grib2 2026-04-14 16:14 955K
20260414T12Z_MSC_GDPS_AirTemp_IsbL-0500_LatLon0.15_PT042H.grib2 2026-04-14 16:14 1.0M
20260414T12Z_MSC_GDPS_AirTemp_IsbL-0550_LatLon0.15_PT042H.grib2 2026-04-14 16:14 1.0M
20260414T12Z_MSC_GDPS_AirTemp_IsbL-0600_LatLon0.15_PT042H.grib2 2026-04-14 16:14 883K
20260414T12Z_MSC_GDPS_AirTemp_IsbL-0650_LatLon0.15_PT042H.grib2 2026-04-14 16:14 910K
20260414T12Z_MSC_GDPS_AirTemp_IsbL-0700_LatLon0.15_PT042H.grib2 2026-04-14 16:14 945K
20260414T12Z_MSC_GDPS_AirTemp_IsbL-0750_LatLon0.15_PT042H.grib2 2026-04-14 16:14 1.0M
20260414T12Z_MSC_GDPS_AirTemp_IsbL-0800_LatLon0.15_PT042H.grib2 2026-04-14 16:14 1.1M
20260414T12Z_MSC_GDPS_AirTemp_IsbL-0850_LatLon0.15_PT042H.grib2 2026-04-14 16:14 1.1M
20260414T12Z_MSC_GDPS_AirTemp_IsbL-0875_LatLon0.15_PT042H.grib2 2026-04-14 16:14 1.2M
20260414T12Z_MSC_GDPS_AirTemp_IsbL-0900_LatLon0.15_PT042H.grib2 2026-04-14 16:14 1.2M
20260414T12Z_MSC_GDPS_AirTemp_IsbL-0925_LatLon0.15_PT042H.grib2 2026-04-14 16:14 1.1M
20260414T12Z_MSC_GDPS_AirTemp_IsbL-0950_LatLon0.15_PT042H.grib2 2026-04-14 16:14 1.1M
20260414T12Z_MSC_GDPS_AirTemp_IsbL-0970_LatLon0.15_PT042H.grib2 2026-04-14 16:14 1.2M
20260414T12Z_MSC_GDPS_AirTemp_IsbL-0985_LatLon0.15_PT042H.grib2 2026-04-14 16:14 1.1M
20260414T12Z_MSC_GDPS_AirTemp_IsbL-1000_LatLon0.15_PT042H.grib2 2026-04-14 16:14 1.1M
20260414T12Z_MSC_GDPS_AirTemp_IsbL-1015_LatLon0.15_PT042H.grib2 2026-04-14 16:14 1.1M
20260414T12Z_MSC_GDPS_Albedo_Sfc_LatLon0.15_PT042H.grib2 2026-04-14 16:14 246K
20260414T12Z_MSC_GDPS_CAPE_Sfc_LatLon0.15_PT042H.grib2 2026-04-14 16:14 4.0M
20260414T12Z_MSC_GDPS_CIN_Sfc_LatLon0.15_PT042H.grib2 2026-04-14 16:14 2.9M
20260414T12Z_MSC_GDPS_CloudWater_EAtm_LatLon0.15_PT042H.grib2 2026-04-14 16:14 522K
20260414T12Z_MSC_GDPS_ConvectivePrecip-Accum_Sfc_LatLon0.15_PT042H.grib2 2026-04-14 16:14 2.6M
20260414T12Z_MSC_GDPS_DewPointDepression_AGL-2m_LatLon0.15_PT042H.grib2 2026-04-14 16:14 753K
20260414T12Z_MSC_GDPS_DewPointDepression_IsbL-0010_LatLon0.15_PT042H.grib2 2026-04-14 16:14 13K
20260414T12Z_MSC_GDPS_DewPointDepression_IsbL-0020_LatLon0.15_PT042H.grib2 2026-04-14 16:14 49K
20260414T12Z_MSC_GDPS_DewPointDepression_IsbL-0030_LatLon0.15_PT042H.grib2 2026-04-14 16:14 66K
20260414T12Z_MSC_GDPS_DewPointDepression_IsbL-0050_LatLon0.15_PT042H.grib2 2026-04-14 16:14 358K
20260414T12Z_MSC_GDPS_DewPointDepression_IsbL-0100_LatLon0.15_PT042H.grib2 2026-04-14 16:14 378K
20260414T12Z_MSC_GDPS_DewPointDepression_IsbL-0150_LatLon0.15_PT042H.grib2 2026-04-14 16:14 455K
20260414T12Z_MSC_GDPS_DewPointDepression_IsbL-0175_LatLon0.15_PT042H.grib2 2026-04-14 16:14 523K
20260414T12Z_MSC_GDPS_DewPointDepression_IsbL-0200_LatLon0.15_PT042H.grib2 2026-04-14 16:14 616K
20260414T12Z_MSC_GDPS_DewPointDepression_IsbL-0225_LatLon0.15_PT042H.grib2 2026-04-14 16:14 752K
20260414T12Z_MSC_GDPS_DewPointDepression_IsbL-0250_LatLon0.15_PT042H.grib2 2026-04-14 16:14 871K
20260414T12Z_MSC_GDPS_DewPointDepression_IsbL-0275_LatLon0.15_PT042H.grib2 2026-04-14 16:14 896K
20260414T12Z_MSC_GDPS_DewPointDepression_IsbL-0300_LatLon0.15_PT042H.grib2 2026-04-14 16:14 938K
20260414T12Z_MSC_GDPS_DewPointDepression_IsbL-0350_LatLon0.15_PT042H.grib2 2026-04-14 16:14 966K
20260414T12Z_MSC_GDPS_DewPointDepression_IsbL-0400_LatLon0.15_PT042H.grib2 2026-04-14 16:14 1.0M
20260414T12Z_MSC_GDPS_DewPointDepression_IsbL-0450_LatLon0.15_PT042H.grib2 2026-04-14 16:14 1.0M
20260414T12Z_MSC_GDPS_DewPointDepression_IsbL-0500_LatLon0.15_PT042H.grib2 2026-04-14 16:14 1.0M
20260414T12Z_MSC_GDPS_DewPointDepression_IsbL-0550_LatLon0.15_PT042H.grib2 2026-04-14 16:14 1.1M
20260414T12Z_MSC_GDPS_DewPointDepression_IsbL-0600_LatLon0.15_PT042H.grib2 2026-04-14 16:14 1.1M
20260414T12Z_MSC_GDPS_DewPointDepression_IsbL-0650_LatLon0.15_PT042H.grib2 2026-04-14 16:14 1.1M
20260414T12Z_MSC_GDPS_DewPointDepression_IsbL-0700_LatLon0.15_PT042H.grib2 2026-04-14 16:14 1.1M
20260414T12Z_MSC_GDPS_DewPointDepression_IsbL-0750_LatLon0.15_PT042H.grib2 2026-04-14 16:14 1.1M
20260414T12Z_MSC_GDPS_DewPointDepression_IsbL-0800_LatLon0.15_PT042H.grib2 2026-04-14 16:14 1.1M
20260414T12Z_MSC_GDPS_DewPointDepression_IsbL-0850_LatLon0.15_PT042H.grib2 2026-04-14 16:14 1.1M
20260414T12Z_MSC_GDPS_DewPointDepression_IsbL-0875_LatLon0.15_PT042H.grib2 2026-04-14 16:14 1.1M
20260414T12Z_MSC_GDPS_DewPointDepression_IsbL-0900_LatLon0.15_PT042H.grib2 2026-04-14 16:14 1.0M
20260414T12Z_MSC_GDPS_DewPointDepression_IsbL-0925_LatLon0.15_PT042H.grib2 2026-04-14 16:14 1.0M
20260414T12Z_MSC_GDPS_DewPointDepression_IsbL-0950_LatLon0.15_PT042H.grib2 2026-04-14 16:14 1.0M
20260414T12Z_MSC_GDPS_DewPointDepression_IsbL-0970_LatLon0.15_PT042H.grib2 2026-04-14 16:14 1.0M
20260414T12Z_MSC_GDPS_DewPointDepression_IsbL-0985_LatLon0.15_PT042H.grib2 2026-04-14 16:14 1.0M
20260414T12Z_MSC_GDPS_DewPointDepression_IsbL-1000_LatLon0.15_PT042H.grib2 2026-04-14 16:14 966K
20260414T12Z_MSC_GDPS_DewPointDepression_IsbL-1015_LatLon0.15_PT042H.grib2 2026-04-14 16:14 910K
20260414T12Z_MSC_GDPS_DewPoint_AGL-2m_LatLon0.15_PT042H.grib2 2026-04-14 16:14 607K
20260414T12Z_MSC_GDPS_DownwardLongwaveRadiationFlux-Accum_Sfc_LatLon0.15_PT042H.grib2 2026-04-14 16:14 757K
20260414T12Z_MSC_GDPS_DownwardShortwaveRadiationFlux-Accum_NTAtm_LatLon0.15_PT042H.grib2 2026-04-14 16:14 309K
20260414T12Z_MSC_GDPS_DownwardShortwaveRadiationFlux-Accum_Sfc_LatLon0.15_PT042H.grib2 2026-04-14 16:14 1.0M
20260414T12Z_MSC_GDPS_FreezingRain-Accum12h_Sfc_LatLon0.15_PT042H.grib2 2026-04-14 16:14 74K
20260414T12Z_MSC_GDPS_FreezingRain-Accum1h_Sfc_LatLon0.15_PT042H.grib2 2026-04-14 16:14 27K
20260414T12Z_MSC_GDPS_FreezingRain-Accum24h_Sfc_LatLon0.15_PT042H.grib2 2026-04-14 16:14 109K
20260414T12Z_MSC_GDPS_FreezingRain-Accum3h_Sfc_LatLon0.15_PT042H.grib2 2026-04-14 16:14 24K
20260414T12Z_MSC_GDPS_FreezingRain-Accum6h_Sfc_LatLon0.15_PT042H.grib2 2026-04-14 16:14 51K
20260414T12Z_MSC_GDPS_FreezingRain-Accum_Sfc_LatLon0.15_PT042H.grib2 2026-04-14 16:14 161K
20260414T12Z_MSC_GDPS_GeopotentialHeight_IsbL-0001_LatLon0.15_PT042H.grib2 2026-04-14 16:14 404K
20260414T12Z_MSC_GDPS_GeopotentialHeight_IsbL-0005_LatLon0.15_PT042H.grib2 2026-04-14 16:14 500K
20260414T12Z_MSC_GDPS_GeopotentialHeight_IsbL-0010_LatLon0.15_PT042H.grib2 2026-04-14 16:14 581K
20260414T12Z_MSC_GDPS_GeopotentialHeight_IsbL-0020_LatLon0.15_PT042H.grib2 2026-04-14 16:14 577K
20260414T12Z_MSC_GDPS_GeopotentialHeight_IsbL-0030_LatLon0.15_PT042H.grib2 2026-04-14 16:14 580K
20260414T12Z_MSC_GDPS_GeopotentialHeight_IsbL-0050_LatLon0.15_PT042H.grib2 2026-04-14 16:14 509K
20260414T12Z_MSC_GDPS_GeopotentialHeight_IsbL-0100_LatLon0.15_PT042H.grib2 2026-04-14 16:14 609K
20260414T12Z_MSC_GDPS_GeopotentialHeight_IsbL-0150_LatLon0.15_PT042H.grib2 2026-04-14 16:14 623K
20260414T12Z_MSC_GDPS_GeopotentialHeight_IsbL-0175_LatLon0.15_PT042H.grib2 2026-04-14 16:14 624K
20260414T12Z_MSC_GDPS_GeopotentialHeight_IsbL-0200_LatLon0.15_PT042H.grib2 2026-04-14 16:14 628K
20260414T12Z_MSC_GDPS_GeopotentialHeight_IsbL-0225_LatLon0.15_PT042H.grib2 2026-04-14 16:14 624K
20260414T12Z_MSC_GDPS_GeopotentialHeight_IsbL-0250_LatLon0.15_PT042H.grib2 2026-04-14 16:14 629K
20260414T12Z_MSC_GDPS_GeopotentialHeight_IsbL-0275_LatLon0.15_PT042H.grib2 2026-04-14 16:14 632K
20260414T12Z_MSC_GDPS_GeopotentialHeight_IsbL-0300_LatLon0.15_PT042H.grib2 2026-04-14 16:14 631K
20260414T12Z_MSC_GDPS_GeopotentialHeight_IsbL-0350_LatLon0.15_PT042H.grib2 2026-04-14 16:14 624K
20260414T12Z_MSC_GDPS_GeopotentialHeight_IsbL-0400_LatLon0.15_PT042H.grib2 2026-04-14 16:14 545K
20260414T12Z_MSC_GDPS_GeopotentialHeight_IsbL-0450_LatLon0.15_PT042H.grib2 2026-04-14 16:14 533K
20260414T12Z_MSC_GDPS_GeopotentialHeight_IsbL-0500_LatLon0.15_PT042H.grib2 2026-04-14 16:14 523K
20260414T12Z_MSC_GDPS_GeopotentialHeight_IsbL-0550_LatLon0.15_PT042H.grib2 2026-04-14 16:14 683K
20260414T12Z_MSC_GDPS_GeopotentialHeight_IsbL-0600_LatLon0.15_PT042H.grib2 2026-04-14 16:14 678K
20260414T12Z_MSC_GDPS_GeopotentialHeight_IsbL-0650_LatLon0.15_PT042H.grib2 2026-04-14 16:14 677K
20260414T12Z_MSC_GDPS_GeopotentialHeight_IsbL-0700_LatLon0.15_PT042H.grib2 2026-04-14 16:14 675K
20260414T12Z_MSC_GDPS_GeopotentialHeight_IsbL-0750_LatLon0.15_PT042H.grib2 2026-04-14 16:14 686K
20260414T12Z_MSC_GDPS_GeopotentialHeight_IsbL-0800_LatLon0.15_PT042H.grib2 2026-04-14 16:14 697K
20260414T12Z_MSC_GDPS_GeopotentialHeight_IsbL-0850_LatLon0.15_PT042H.grib2 2026-04-14 16:14 710K
20260414T12Z_MSC_GDPS_GeopotentialHeight_IsbL-0875_LatLon0.15_PT042H.grib2 2026-04-14 16:14 715K
20260414T12Z_MSC_GDPS_GeopotentialHeight_IsbL-0900_LatLon0.15_PT042H.grib2 2026-04-14 16:14 721K
20260414T12Z_MSC_GDPS_GeopotentialHeight_IsbL-0925_LatLon0.15_PT042H.grib2 2026-04-14 16:14 730K
20260414T12Z_MSC_GDPS_GeopotentialHeight_IsbL-0950_LatLon0.15_PT042H.grib2 2026-04-14 16:14 738K
20260414T12Z_MSC_GDPS_GeopotentialHeight_IsbL-0970_LatLon0.15_PT042H.grib2 2026-04-14 16:14 749K
20260414T12Z_MSC_GDPS_GeopotentialHeight_IsbL-0985_LatLon0.15_PT042H.grib2 2026-04-14 16:14 763K
20260414T12Z_MSC_GDPS_GeopotentialHeight_IsbL-1000_LatLon0.15_PT042H.grib2 2026-04-14 16:14 784K
20260414T12Z_MSC_GDPS_GeopotentialHeight_IsbL-1015_LatLon0.15_PT042H.grib2 2026-04-14 16:14 807K
20260414T12Z_MSC_GDPS_Humidex_Sfc_LatLon0.15_PT042H.grib2 2026-04-14 16:14 5.3M
20260414T12Z_MSC_GDPS_IcePellets-Accum12h_Sfc_LatLon0.15_PT042H.grib2 2026-04-14 16:14 35K
20260414T12Z_MSC_GDPS_IcePellets-Accum1h_Sfc_LatLon0.15_PT042H.grib2 2026-04-14 16:14 15K
20260414T12Z_MSC_GDPS_IcePellets-Accum24h_Sfc_LatLon0.15_PT042H.grib2 2026-04-14 16:14 55K
20260414T12Z_MSC_GDPS_IcePellets-Accum3h_Sfc_LatLon0.15_PT042H.grib2 2026-04-14 16:14 21K
20260414T12Z_MSC_GDPS_IcePellets-Accum6h_Sfc_LatLon0.15_PT042H.grib2 2026-04-14 16:14 28K
20260414T12Z_MSC_GDPS_IcePellets-Accum_Sfc_LatLon0.15_PT042H.grib2 2026-04-14 16:14 67K
20260414T12Z_MSC_GDPS_KIndex_Sfc_LatLon0.15_PT042H.grib2 2026-04-14 16:14 6.5M
20260414T12Z_MSC_GDPS_LatentHeatNetFlux_Sfc_LatLon0.15_PT042H.grib2 2026-04-14 16:14 683K
20260414T12Z_MSC_GDPS_LiftedIndex-MU-VT_IsbL-0500_LatLon0.15_PT042H.grib2 2026-04-14 16:14 5.4M
20260414T12Z_MSC_GDPS_NetLongwaveRadiationFlux-Accum_Sfc_LatLon0.15_PT042H.grib2 2026-04-14 16:14 1.1M
20260414T12Z_MSC_GDPS_NetShortwaveRadiationFlux-Accum_Sfc_LatLon0.15_PT042H.grib2 2026-04-14 16:14 1.0M
20260414T12Z_MSC_GDPS_O3MixingRatio_LatLon0.15_PT042H.grib2 2026-04-14 16:55 2.3M
20260414T12Z_MSC_GDPS_O3_EAtm_LatLon0.15_PT042H.grib2 2026-04-14 16:55 2.1M
20260414T12Z_MSC_GDPS_PlanetaryBoundaryLayerHeight_Sfc_LatLon0.15_PT042H.grib2 2026-04-14 16:14 2.5M
20260414T12Z_MSC_GDPS_Precip-Accum12h_Sfc_LatLon0.15_PT042H.grib2 2026-04-14 16:14 4.0M
20260414T12Z_MSC_GDPS_Precip-Accum1h_Sfc_LatLon0.15_PT042H.grib2 2026-04-14 16:14 3.2M
20260414T12Z_MSC_GDPS_Precip-Accum24h_Sfc_LatLon0.15_PT042H.grib2 2026-04-14 16:14 4.5M
20260414T12Z_MSC_GDPS_Precip-Accum3h_Sfc_LatLon0.15_PT042H.grib2 2026-04-14 16:14 3.5M
20260414T12Z_MSC_GDPS_Precip-Accum6h_Sfc_LatLon0.15_PT042H.grib2 2026-04-14 16:14 3.8M
20260414T12Z_MSC_GDPS_Precip-Accum_Sfc_LatLon0.15_PT042H.grib2 2026-04-14 16:14 4.7M
20260414T12Z_MSC_GDPS_PrecipRate_Sfc_LatLon0.15_PT042H.grib2 2026-04-14 16:14 3.1M
20260414T12Z_MSC_GDPS_PrecipType-Instant_Sfc_LatLon0.15_PT042H.grib2 2026-04-14 16:14 1.5M
20260414T12Z_MSC_GDPS_Pressure_MSL_LatLon0.15_PT042H.grib2 2026-04-14 16:14 720K
20260414T12Z_MSC_GDPS_Pressure_PVU-1.5_LatLon0.15_PT042H.grib2 2026-04-14 16:14 5.8M
20260414T12Z_MSC_GDPS_Pressure_PVU-1_LatLon0.15_PT042H.grib2 2026-04-14 16:14 6.0M
20260414T12Z_MSC_GDPS_Pressure_PVU-2_LatLon0.15_PT042H.grib2 2026-04-14 16:14 6.0M
20260414T12Z_MSC_GDPS_Pressure_Sfc_LatLon0.15_PT042H.grib2 2026-04-14 16:14 1.1M
20260414T12Z_MSC_GDPS_RadiativeTemp_Sfc_LatLon0.15_PT042H.grib2 2026-04-14 16:14 665K
20260414T12Z_MSC_GDPS_Rain-Accum12h_Sfc_LatLon0.15_PT042H.grib2 2026-04-14 16:14 2.6M
20260414T12Z_MSC_GDPS_Rain-Accum1h_Sfc_LatLon0.15_PT042H.grib2 2026-04-14 16:14 1.6M
20260414T12Z_MSC_GDPS_Rain-Accum24h_Sfc_LatLon0.15_PT042H.grib2 2026-04-14 16:14 3.1M
20260414T12Z_MSC_GDPS_Rain-Accum3h_Sfc_LatLon0.15_PT042H.grib2 2026-04-14 16:14 1.6M
20260414T12Z_MSC_GDPS_Rain-Accum6h_Sfc_LatLon0.15_PT042H.grib2 2026-04-14 16:14 2.4M
20260414T12Z_MSC_GDPS_Rain-Accum_Sfc_LatLon0.15_PT042H.grib2 2026-04-14 16:14 3.4M
20260414T12Z_MSC_GDPS_RelativeHumidity_AGL-2m_LatLon0.15_PT042H.grib2 2026-04-14 16:14 1.0M
20260414T12Z_MSC_GDPS_RelativeHumidity_IsbL-0010_LatLon0.15_PT042H.grib2 2026-04-14 16:14 265K
20260414T12Z_MSC_GDPS_RelativeHumidity_IsbL-0020_LatLon0.15_PT042H.grib2 2026-04-14 16:14 391K
20260414T12Z_MSC_GDPS_RelativeHumidity_IsbL-0030_LatLon0.15_PT042H.grib2 2026-04-14 16:14 384K
20260414T12Z_MSC_GDPS_RelativeHumidity_IsbL-0050_LatLon0.15_PT042H.grib2 2026-04-14 16:14 325K
20260414T12Z_MSC_GDPS_RelativeHumidity_IsbL-0100_LatLon0.15_PT042H.grib2 2026-04-14 16:14 494K
20260414T12Z_MSC_GDPS_RelativeHumidity_IsbL-0150_LatLon0.15_PT042H.grib2 2026-04-14 16:14 643K
20260414T12Z_MSC_GDPS_RelativeHumidity_IsbL-0175_LatLon0.15_PT042H.grib2 2026-04-14 16:14 760K
20260414T12Z_MSC_GDPS_RelativeHumidity_IsbL-0200_LatLon0.15_PT042H.grib2 2026-04-14 16:14 672K
20260414T12Z_MSC_GDPS_RelativeHumidity_IsbL-0225_LatLon0.15_PT042H.grib2 2026-04-14 16:14 769K
20260414T12Z_MSC_GDPS_RelativeHumidity_IsbL-0250_LatLon0.15_PT042H.grib2 2026-04-14 16:14 861K
20260414T12Z_MSC_GDPS_RelativeHumidity_IsbL-0275_LatLon0.15_PT042H.grib2 2026-04-14 16:14 887K
20260414T12Z_MSC_GDPS_RelativeHumidity_IsbL-0300_LatLon0.15_PT042H.grib2 2026-04-14 16:14 937K
20260414T12Z_MSC_GDPS_RelativeHumidity_IsbL-0350_LatLon0.15_PT042H.grib2 2026-04-14 16:14 961K
20260414T12Z_MSC_GDPS_RelativeHumidity_IsbL-0400_LatLon0.15_PT042H.grib2 2026-04-14 16:14 1.0M
20260414T12Z_MSC_GDPS_RelativeHumidity_IsbL-0450_LatLon0.15_PT042H.grib2 2026-04-14 16:14 1.0M
20260414T12Z_MSC_GDPS_RelativeHumidity_IsbL-0500_LatLon0.15_PT042H.grib2 2026-04-14 16:14 1.1M
20260414T12Z_MSC_GDPS_RelativeHumidity_IsbL-0550_LatLon0.15_PT042H.grib2 2026-04-14 16:14 1.1M
20260414T12Z_MSC_GDPS_RelativeHumidity_IsbL-0600_LatLon0.15_PT042H.grib2 2026-04-14 16:14 1.1M
20260414T12Z_MSC_GDPS_RelativeHumidity_IsbL-0650_LatLon0.15_PT042H.grib2 2026-04-14 16:14 1.1M
20260414T12Z_MSC_GDPS_RelativeHumidity_IsbL-0700_LatLon0.15_PT042H.grib2 2026-04-14 16:14 1.1M
20260414T12Z_MSC_GDPS_RelativeHumidity_IsbL-0750_LatLon0.15_PT042H.grib2 2026-04-14 16:14 1.2M
20260414T12Z_MSC_GDPS_RelativeHumidity_IsbL-0800_LatLon0.15_PT042H.grib2 2026-04-14 16:14 1.2M
20260414T12Z_MSC_GDPS_RelativeHumidity_IsbL-0850_LatLon0.15_PT042H.grib2 2026-04-14 16:14 1.3M
20260414T12Z_MSC_GDPS_RelativeHumidity_IsbL-0875_LatLon0.15_PT042H.grib2 2026-04-14 16:14 1.3M
20260414T12Z_MSC_GDPS_RelativeHumidity_IsbL-0900_LatLon0.15_PT042H.grib2 2026-04-14 16:14 1.3M
20260414T12Z_MSC_GDPS_RelativeHumidity_IsbL-0925_LatLon0.15_PT042H.grib2 2026-04-14 16:14 1.2M
20260414T12Z_MSC_GDPS_RelativeHumidity_IsbL-0950_LatLon0.15_PT042H.grib2 2026-04-14 16:14 1.2M
20260414T12Z_MSC_GDPS_RelativeHumidity_IsbL-0970_LatLon0.15_PT042H.grib2 2026-04-14 16:14 1.2M
20260414T12Z_MSC_GDPS_RelativeHumidity_IsbL-0985_LatLon0.15_PT042H.grib2 2026-04-14 16:14 1.1M
20260414T12Z_MSC_GDPS_RelativeHumidity_IsbL-1000_LatLon0.15_PT042H.grib2 2026-04-14 16:14 1.1M
20260414T12Z_MSC_GDPS_RelativeHumidity_IsbL-1015_LatLon0.15_PT042H.grib2 2026-04-14 16:14 1.0M
20260414T12Z_MSC_GDPS_RelativeVorticity_IsbL-0200_LatLon0.15_PT042H.grib2 2026-04-14 16:14 1.5M
20260414T12Z_MSC_GDPS_RelativeVorticity_IsbL-0250_LatLon0.15_PT042H.grib2 2026-04-14 16:14 1.3M
20260414T12Z_MSC_GDPS_RelativeVorticity_IsbL-0500_LatLon0.15_PT042H.grib2 2026-04-14 16:14 1.4M
20260414T12Z_MSC_GDPS_RelativeVorticity_IsbL-0700_LatLon0.15_PT042H.grib2 2026-04-14 16:14 1.3M
20260414T12Z_MSC_GDPS_RelativeVorticity_IsbL-0850_LatLon0.15_PT042H.grib2 2026-04-14 16:14 1.6M
20260414T12Z_MSC_GDPS_Runoff-Accum_Sfc_LatLon0.15_PT042H.grib2 2026-04-14 16:14 95K
20260414T12Z_MSC_GDPS_SensibleHeatNetFlux_Sfc_LatLon0.15_PT042H.grib2 2026-04-14 16:14 635K
20260414T12Z_MSC_GDPS_ShowalterIndex_IsbL-0500_LatLon0.15_PT042H.grib2 2026-04-14 16:14 6.2M
20260414T12Z_MSC_GDPS_Snow-Accum12h_Sfc_LatLon0.15_PT042H.grib2 2026-04-14 16:14 1.4M
20260414T12Z_MSC_GDPS_Snow-Accum1h_Sfc_LatLon0.15_PT042H.grib2 2026-04-14 16:14 1.0M
20260414T12Z_MSC_GDPS_Snow-Accum24h_Sfc_LatLon0.15_PT042H.grib2 2026-04-14 16:14 1.5M
20260414T12Z_MSC_GDPS_Snow-Accum3h_Sfc_LatLon0.15_PT042H.grib2 2026-04-14 16:14 858K
20260414T12Z_MSC_GDPS_Snow-Accum6h_Sfc_LatLon0.15_PT042H.grib2 2026-04-14 16:14 1.2M
20260414T12Z_MSC_GDPS_Snow-Accum_Sfc_LatLon0.15_PT042H.grib2 2026-04-14 16:14 1.8M
20260414T12Z_MSC_GDPS_SnowDensity_Sfc_LatLon0.15_PT042H.grib2 2026-04-14 16:14 264K
20260414T12Z_MSC_GDPS_SnowDepth_Sfc_LatLon0.15_PT042H.grib2 2026-04-14 16:14 1.8M
20260414T12Z_MSC_GDPS_SoilTemp_DBS-0to10cm_LatLon0.15_PT042H.grib2 2026-04-14 16:14 499K
20260414T12Z_MSC_GDPS_SoilTemp_Sfc_LatLon0.15_PT042H.grib2 2026-04-14 16:14 579K
20260414T12Z_MSC_GDPS_SoilVolumetricIceContent_Sfc_LatLon0.15_PT042H.grib2 2026-04-14 16:14 224K
20260414T12Z_MSC_GDPS_SoilVolumetricWaterContent_DBS-0to10cm_LatLon0.15_PT042H.grib2 2026-04-14 16:14 552K
20260414T12Z_MSC_GDPS_SoilVolumetricWaterContent_DBS-0to1cm_LatLon0.15_PT042H.grib2 2026-04-14 16:14 650K
20260414T12Z_MSC_GDPS_SpecificHumidity_AGL-120m_LatLon0.15_PT042H.grib2 2026-04-14 16:14 1.1M
20260414T12Z_MSC_GDPS_SpecificHumidity_AGL-2m_LatLon0.15_PT042H.grib2 2026-04-14 16:14 1.2M
20260414T12Z_MSC_GDPS_SpecificHumidity_AGL-40m_LatLon0.15_PT042H.grib2 2026-04-14 16:14 1.1M
20260414T12Z_MSC_GDPS_SpecificHumidity_AGL-80m_LatLon0.15_PT042H.grib2 2026-04-14 16:14 1.1M
20260414T12Z_MSC_GDPS_SpecificHumidity_IsbL-0001_LatLon0.15_PT042H.grib2 2026-04-14 16:14 1.2M
20260414T12Z_MSC_GDPS_SpecificHumidity_IsbL-0005_LatLon0.15_PT042H.grib2 2026-04-14 16:14 1.2M
20260414T12Z_MSC_GDPS_SpecificHumidity_IsbL-0010_LatLon0.15_PT042H.grib2 2026-04-14 16:14 1.3M
20260414T12Z_MSC_GDPS_SpecificHumidity_IsbL-0020_LatLon0.15_PT042H.grib2 2026-04-14 16:14 1.4M
20260414T12Z_MSC_GDPS_SpecificHumidity_IsbL-0030_LatLon0.15_PT042H.grib2 2026-04-14 16:14 1.4M
20260414T12Z_MSC_GDPS_SpecificHumidity_IsbL-0050_LatLon0.15_PT042H.grib2 2026-04-14 16:14 1.4M
20260414T12Z_MSC_GDPS_SpecificHumidity_IsbL-0100_LatLon0.15_PT042H.grib2 2026-04-14 16:14 1.3M
20260414T12Z_MSC_GDPS_SpecificHumidity_IsbL-0150_LatLon0.15_PT042H.grib2 2026-04-14 16:14 1.3M
20260414T12Z_MSC_GDPS_SpecificHumidity_IsbL-0175_LatLon0.15_PT042H.grib2 2026-04-14 16:14 1.3M
20260414T12Z_MSC_GDPS_SpecificHumidity_IsbL-0200_LatLon0.15_PT042H.grib2 2026-04-14 16:14 1.0M
20260414T12Z_MSC_GDPS_SpecificHumidity_IsbL-0225_LatLon0.15_PT042H.grib2 2026-04-14 16:14 1.2M
20260414T12Z_MSC_GDPS_SpecificHumidity_IsbL-0250_LatLon0.15_PT042H.grib2 2026-04-14 16:14 1.2M
20260414T12Z_MSC_GDPS_SpecificHumidity_IsbL-0275_LatLon0.15_PT042H.grib2 2026-04-14 16:14 1.1M
20260414T12Z_MSC_GDPS_SpecificHumidity_IsbL-0300_LatLon0.15_PT042H.grib2 2026-04-14 16:14 1.2M
20260414T12Z_MSC_GDPS_SpecificHumidity_IsbL-0350_LatLon0.15_PT042H.grib2 2026-04-14 16:14 1.2M
20260414T12Z_MSC_GDPS_SpecificHumidity_IsbL-0400_LatLon0.15_PT042H.grib2 2026-04-14 16:14 1.4M
20260414T12Z_MSC_GDPS_SpecificHumidity_IsbL-0450_LatLon0.15_PT042H.grib2 2026-04-14 16:14 1.3M
20260414T12Z_MSC_GDPS_SpecificHumidity_IsbL-0500_LatLon0.15_PT042H.grib2 2026-04-14 16:14 1.5M
20260414T12Z_MSC_GDPS_SpecificHumidity_IsbL-0550_LatLon0.15_PT042H.grib2 2026-04-14 16:14 1.6M
20260414T12Z_MSC_GDPS_SpecificHumidity_IsbL-0600_LatLon0.15_PT042H.grib2 2026-04-14 16:14 1.4M
20260414T12Z_MSC_GDPS_SpecificHumidity_IsbL-0650_LatLon0.15_PT042H.grib2 2026-04-14 16:14 1.5M
20260414T12Z_MSC_GDPS_SpecificHumidity_IsbL-0700_LatLon0.15_PT042H.grib2 2026-04-14 16:14 1.6M
20260414T12Z_MSC_GDPS_SpecificHumidity_IsbL-0750_LatLon0.15_PT042H.grib2 2026-04-14 16:14 1.7M
20260414T12Z_MSC_GDPS_SpecificHumidity_IsbL-0800_LatLon0.15_PT042H.grib2 2026-04-14 16:14 1.8M
20260414T12Z_MSC_GDPS_SpecificHumidity_IsbL-0850_LatLon0.15_PT042H.grib2 2026-04-14 16:14 1.9M
20260414T12Z_MSC_GDPS_SpecificHumidity_IsbL-0875_LatLon0.15_PT042H.grib2 2026-04-14 16:14 1.9M
20260414T12Z_MSC_GDPS_SpecificHumidity_IsbL-0900_LatLon0.15_PT042H.grib2 2026-04-14 16:14 1.9M
20260414T12Z_MSC_GDPS_SpecificHumidity_IsbL-0925_LatLon0.15_PT042H.grib2 2026-04-14 16:14 1.6M
20260414T12Z_MSC_GDPS_SpecificHumidity_IsbL-0950_LatLon0.15_PT042H.grib2 2026-04-14 16:14 1.5M
20260414T12Z_MSC_GDPS_SpecificHumidity_IsbL-0970_LatLon0.15_PT042H.grib2 2026-04-14 16:14 1.5M
20260414T12Z_MSC_GDPS_SpecificHumidity_IsbL-0985_LatLon0.15_PT042H.grib2 2026-04-14 16:14 1.5M
20260414T12Z_MSC_GDPS_SpecificHumidity_IsbL-1000_LatLon0.15_PT042H.grib2 2026-04-14 16:14 1.5M
20260414T12Z_MSC_GDPS_SpecificHumidity_IsbL-1015_LatLon0.15_PT042H.grib2 2026-04-14 16:14 1.4M
20260414T12Z_MSC_GDPS_SpecificHumidity_Sfc_LatLon0.15_PT042H.grib2 2026-04-14 16:14 654K
20260414T12Z_MSC_GDPS_Thickness_IsbL-0850to0700_LatLon0.15_PT042H.grib2 2026-04-14 16:14 465K
20260414T12Z_MSC_GDPS_Thickness_IsbL-1000to0500_LatLon0.15_PT042H.grib2 2026-04-14 16:14 371K
20260414T12Z_MSC_GDPS_Thickness_IsbL-1000to0850_LatLon0.15_PT042H.grib2 2026-04-14 16:14 489K
20260414T12Z_MSC_GDPS_TotalCloudCover_Sfc_LatLon0.15_PT042H.grib2 2026-04-14 16:14 828K
20260414T12Z_MSC_GDPS_TotalTotalsIndex_Sfc_LatLon0.15_PT042H.grib2 2026-04-14 16:14 6.2M
20260414T12Z_MSC_GDPS_UVIndex-ClearSky_Sfc_LatLon0.15_PT042H.grib2 2026-04-14 16:55 1.0M
20260414T12Z_MSC_GDPS_UVIndex_Sfc_LatLon0.15_PT042H.grib2 2026-04-14 16:55 1.4M
20260414T12Z_MSC_GDPS_UpwardLongwaveRadiationFlux_NTAtm_LatLon0.15_PT042H.grib2 2026-04-14 16:14 828K
20260414T12Z_MSC_GDPS_VerticalVelocity_IsbL-0200_LatLon0.15_PT042H.grib2 2026-04-14 16:14 1.1M
20260414T12Z_MSC_GDPS_VerticalVelocity_IsbL-0250_LatLon0.15_PT042H.grib2 2026-04-14 16:14 1.0M
20260414T12Z_MSC_GDPS_VerticalVelocity_IsbL-0500_LatLon0.15_PT042H.grib2 2026-04-14 16:14 1.0M
20260414T12Z_MSC_GDPS_VerticalVelocity_IsbL-0600_LatLon0.15_PT042H.grib2 2026-04-14 16:14 1.0M
20260414T12Z_MSC_GDPS_VerticalVelocity_IsbL-0700_LatLon0.15_PT042H.grib2 2026-04-14 16:14 1.1M
20260414T12Z_MSC_GDPS_VerticalVelocity_IsbL-0850_LatLon0.15_PT042H.grib2 2026-04-14 16:14 1.3M
20260414T12Z_MSC_GDPS_WindChill_Sfc_LatLon0.15_PT042H.grib2 2026-04-14 16:14 5.3M
20260414T12Z_MSC_GDPS_WindDir_AGL-10m_LatLon0.15_PT042H.grib2 2026-04-14 16:14 1.3M
20260414T12Z_MSC_GDPS_WindDir_AGL-120m_LatLon0.15_PT042H.grib2 2026-04-14 16:14 1.3M
20260414T12Z_MSC_GDPS_WindDir_AGL-40m_LatLon0.15_PT042H.grib2 2026-04-14 16:14 1.4M
20260414T12Z_MSC_GDPS_WindDir_AGL-80m_LatLon0.15_PT042H.grib2 2026-04-14 16:14 1.4M
20260414T12Z_MSC_GDPS_WindDir_IsbL-0001_LatLon0.15_PT042H.grib2 2026-04-14 16:14 636K
20260414T12Z_MSC_GDPS_WindDir_IsbL-0005_LatLon0.15_PT042H.grib2 2026-04-14 16:14 791K
20260414T12Z_MSC_GDPS_WindDir_IsbL-0010_LatLon0.15_PT042H.grib2 2026-04-14 16:14 849K
20260414T12Z_MSC_GDPS_WindDir_IsbL-0020_LatLon0.15_PT042H.grib2 2026-04-14 16:14 909K
20260414T12Z_MSC_GDPS_WindDir_IsbL-0030_LatLon0.15_PT042H.grib2 2026-04-14 16:14 878K
20260414T12Z_MSC_GDPS_WindDir_IsbL-0050_LatLon0.15_PT042H.grib2 2026-04-14 16:14 954K
20260414T12Z_MSC_GDPS_WindDir_IsbL-0100_LatLon0.15_PT042H.grib2 2026-04-14 16:14 1.0M
20260414T12Z_MSC_GDPS_WindDir_IsbL-0150_LatLon0.15_PT042H.grib2 2026-04-14 16:14 1.0M
20260414T12Z_MSC_GDPS_WindDir_IsbL-0175_LatLon0.15_PT042H.grib2 2026-04-14 16:14 1.0M
20260414T12Z_MSC_GDPS_WindDir_IsbL-0200_LatLon0.15_PT042H.grib2 2026-04-14 16:14 1.1M
20260414T12Z_MSC_GDPS_WindDir_IsbL-0225_LatLon0.15_PT042H.grib2 2026-04-14 16:14 1.1M
20260414T12Z_MSC_GDPS_WindDir_IsbL-0250_LatLon0.15_PT042H.grib2 2026-04-14 16:14 1.1M
20260414T12Z_MSC_GDPS_WindDir_IsbL-0275_LatLon0.15_PT042H.grib2 2026-04-14 16:14 1.2M
20260414T12Z_MSC_GDPS_WindDir_IsbL-0300_LatLon0.15_PT042H.grib2 2026-04-14 16:14 1.2M
20260414T12Z_MSC_GDPS_WindDir_IsbL-0350_LatLon0.15_PT042H.grib2 2026-04-14 16:14 1.2M
20260414T12Z_MSC_GDPS_WindDir_IsbL-0400_LatLon0.15_PT042H.grib2 2026-04-14 16:14 1.3M
20260414T12Z_MSC_GDPS_WindDir_IsbL-0450_LatLon0.15_PT042H.grib2 2026-04-14 16:14 1.3M
20260414T12Z_MSC_GDPS_WindDir_IsbL-0500_LatLon0.15_PT042H.grib2 2026-04-14 16:14 1.4M
20260414T12Z_MSC_GDPS_WindDir_IsbL-0550_LatLon0.15_PT042H.grib2 2026-04-14 16:14 1.4M
20260414T12Z_MSC_GDPS_WindDir_IsbL-0600_LatLon0.15_PT042H.grib2 2026-04-14 16:14 1.5M
20260414T12Z_MSC_GDPS_WindDir_IsbL-0650_LatLon0.15_PT042H.grib2 2026-04-14 16:14 1.5M
20260414T12Z_MSC_GDPS_WindDir_IsbL-0700_LatLon0.15_PT042H.grib2 2026-04-14 16:14 1.6M
20260414T12Z_MSC_GDPS_WindDir_IsbL-0750_LatLon0.15_PT042H.grib2 2026-04-14 16:14 1.7M
20260414T12Z_MSC_GDPS_WindDir_IsbL-0800_LatLon0.15_PT042H.grib2 2026-04-14 16:14 1.8M
20260414T12Z_MSC_GDPS_WindDir_IsbL-0850_LatLon0.15_PT042H.grib2 2026-04-14 16:14 1.9M
20260414T12Z_MSC_GDPS_WindDir_IsbL-0875_LatLon0.15_PT042H.grib2 2026-04-14 16:14 2.0M
20260414T12Z_MSC_GDPS_WindDir_IsbL-0900_LatLon0.15_PT042H.grib2 2026-04-14 16:14 2.0M
20260414T12Z_MSC_GDPS_WindDir_IsbL-0925_LatLon0.15_PT042H.grib2 2026-04-14 16:14 2.0M
20260414T12Z_MSC_GDPS_WindDir_IsbL-0950_LatLon0.15_PT042H.grib2 2026-04-14 16:14 2.0M
20260414T12Z_MSC_GDPS_WindDir_IsbL-0970_LatLon0.15_PT042H.grib2 2026-04-14 16:14 2.0M
20260414T12Z_MSC_GDPS_WindDir_IsbL-0985_LatLon0.15_PT042H.grib2 2026-04-14 16:14 2.0M
20260414T12Z_MSC_GDPS_WindDir_IsbL-1000_LatLon0.15_PT042H.grib2 2026-04-14 16:14 2.1M
20260414T12Z_MSC_GDPS_WindDir_IsbL-1015_LatLon0.15_PT042H.grib2 2026-04-14 16:14 2.0M
20260414T12Z_MSC_GDPS_WindGust-Max_AGL-10m_LatLon0.15_PT042H.grib2 2026-04-14 16:14 2.2M
20260414T12Z_MSC_GDPS_WindGust-Min_AGL-10m_LatLon0.15_PT042H.grib2 2026-04-14 16:14 2.2M
20260414T12Z_MSC_GDPS_WindGust_AGL-10m_LatLon0.15_PT042H.grib2 2026-04-14 16:14 2.2M
20260414T12Z_MSC_GDPS_WindSpeed_AGL-10m_LatLon0.15_PT042H.grib2 2026-04-14 16:14 1.1M
20260414T12Z_MSC_GDPS_WindSpeed_AGL-120m_LatLon0.15_PT042H.grib2 2026-04-14 16:14 1.2M
20260414T12Z_MSC_GDPS_WindSpeed_AGL-40m_LatLon0.15_PT042H.grib2 2026-04-14 16:14 1.2M
20260414T12Z_MSC_GDPS_WindSpeed_AGL-80m_LatLon0.15_PT042H.grib2 2026-04-14 16:14 1.2M
20260414T12Z_MSC_GDPS_WindSpeed_IsbL-0001_LatLon0.15_PT042H.grib2 2026-04-14 16:14 633K
20260414T12Z_MSC_GDPS_WindSpeed_IsbL-0005_LatLon0.15_PT042H.grib2 2026-04-14 16:14 688K
20260414T12Z_MSC_GDPS_WindSpeed_IsbL-0010_LatLon0.15_PT042H.grib2 2026-04-14 16:14 627K
20260414T12Z_MSC_GDPS_WindSpeed_IsbL-0020_LatLon0.15_PT042H.grib2 2026-04-14 16:14 670K
20260414T12Z_MSC_GDPS_WindSpeed_IsbL-0030_LatLon0.15_PT042H.grib2 2026-04-14 16:14 859K
20260414T12Z_MSC_GDPS_WindSpeed_IsbL-0050_LatLon0.15_PT042H.grib2 2026-04-14 16:14 915K
20260414T12Z_MSC_GDPS_WindSpeed_IsbL-0100_LatLon0.15_PT042H.grib2 2026-04-14 16:14 1.1M
20260414T12Z_MSC_GDPS_WindSpeed_IsbL-0150_LatLon0.15_PT042H.grib2 2026-04-14 16:14 924K
20260414T12Z_MSC_GDPS_WindSpeed_IsbL-0175_LatLon0.15_PT042H.grib2 2026-04-14 16:14 1.0M
20260414T12Z_MSC_GDPS_WindSpeed_IsbL-0200_LatLon0.15_PT042H.grib2 2026-04-14 16:14 1.0M
20260414T12Z_MSC_GDPS_WindSpeed_IsbL-0225_LatLon0.15_PT042H.grib2 2026-04-14 16:14 1.1M
20260414T12Z_MSC_GDPS_WindSpeed_IsbL-0250_LatLon0.15_PT042H.grib2 2026-04-14 16:14 1.1M
20260414T12Z_MSC_GDPS_WindSpeed_IsbL-0275_LatLon0.15_PT042H.grib2 2026-04-14 16:14 1.1M
20260414T12Z_MSC_GDPS_WindSpeed_IsbL-0300_LatLon0.15_PT042H.grib2 2026-04-14 16:14 1.1M
20260414T12Z_MSC_GDPS_WindSpeed_IsbL-0350_LatLon0.15_PT042H.grib2 2026-04-14 16:14 1.1M
20260414T12Z_MSC_GDPS_WindSpeed_IsbL-0400_LatLon0.15_PT042H.grib2 2026-04-14 16:14 1.1M
20260414T12Z_MSC_GDPS_WindSpeed_IsbL-0450_LatLon0.15_PT042H.grib2 2026-04-14 16:14 1.1M
20260414T12Z_MSC_GDPS_WindSpeed_IsbL-0500_LatLon0.15_PT042H.grib2 2026-04-14 16:14 1.1M
20260414T12Z_MSC_GDPS_WindSpeed_IsbL-0550_LatLon0.15_PT042H.grib2 2026-04-14 16:14 1.1M
20260414T12Z_MSC_GDPS_WindSpeed_IsbL-0600_LatLon0.15_PT042H.grib2 2026-04-14 16:14 1.4M
20260414T12Z_MSC_GDPS_WindSpeed_IsbL-0650_LatLon0.15_PT042H.grib2 2026-04-14 16:14 1.4M
20260414T12Z_MSC_GDPS_WindSpeed_IsbL-0700_LatLon0.15_PT042H.grib2 2026-04-14 16:14 1.5M
20260414T12Z_MSC_GDPS_WindSpeed_IsbL-0750_LatLon0.15_PT042H.grib2 2026-04-14 16:14 1.5M
20260414T12Z_MSC_GDPS_WindSpeed_IsbL-0800_LatLon0.15_PT042H.grib2 2026-04-14 16:14 1.6M
20260414T12Z_MSC_GDPS_WindSpeed_IsbL-0850_LatLon0.15_PT042H.grib2 2026-04-14 16:14 1.7M
20260414T12Z_MSC_GDPS_WindSpeed_IsbL-0875_LatLon0.15_PT042H.grib2 2026-04-14 16:14 1.8M
20260414T12Z_MSC_GDPS_WindSpeed_IsbL-0900_LatLon0.15_PT042H.grib2 2026-04-14 16:14 1.9M
20260414T12Z_MSC_GDPS_WindSpeed_IsbL-0925_LatLon0.15_PT042H.grib2 2026-04-14 16:14 1.9M
20260414T12Z_MSC_GDPS_WindSpeed_IsbL-0950_LatLon0.15_PT042H.grib2 2026-04-14 16:14 1.9M
20260414T12Z_MSC_GDPS_WindSpeed_IsbL-0970_LatLon0.15_PT042H.grib2 2026-04-14 16:14 1.9M
20260414T12Z_MSC_GDPS_WindSpeed_IsbL-0985_LatLon0.15_PT042H.grib2 2026-04-14 16:14 1.9M
20260414T12Z_MSC_GDPS_WindSpeed_IsbL-1000_LatLon0.15_PT042H.grib2 2026-04-14 16:14 1.9M
20260414T12Z_MSC_GDPS_WindSpeed_IsbL-1015_LatLon0.15_PT042H.grib2 2026-04-14 16:14 1.8M
20260414T12Z_MSC_GDPS_WindU_AGL-10m_LatLon0.15_PT042H.grib2 2026-04-14 16:14 1.6M
20260414T12Z_MSC_GDPS_WindU_AGL-120m_LatLon0.15_PT042H.grib2 2026-04-14 16:14 968K
20260414T12Z_MSC_GDPS_WindU_AGL-40m_LatLon0.15_PT042H.grib2 2026-04-14 16:14 962K
20260414T12Z_MSC_GDPS_WindU_AGL-80m_LatLon0.15_PT042H.grib2 2026-04-14 16:14 967K
20260414T12Z_MSC_GDPS_WindU_IsbL-0001_LatLon0.15_PT042H.grib2 2026-04-14 16:14 496K
20260414T12Z_MSC_GDPS_WindU_IsbL-0005_LatLon0.15_PT042H.grib2 2026-04-14 16:14 689K
20260414T12Z_MSC_GDPS_WindU_IsbL-0010_LatLon0.15_PT042H.grib2 2026-04-14 16:14 702K
20260414T12Z_MSC_GDPS_WindU_IsbL-0020_LatLon0.15_PT042H.grib2 2026-04-14 16:14 738K
20260414T12Z_MSC_GDPS_WindU_IsbL-0030_LatLon0.15_PT042H.grib2 2026-04-14 16:14 738K
20260414T12Z_MSC_GDPS_WindU_IsbL-0050_LatLon0.15_PT042H.grib2 2026-04-14 16:14 705K
20260414T12Z_MSC_GDPS_WindU_IsbL-0100_LatLon0.15_PT042H.grib2 2026-04-14 16:14 923K
20260414T12Z_MSC_GDPS_WindU_IsbL-0150_LatLon0.15_PT042H.grib2 2026-04-14 16:14 1.0M
20260414T12Z_MSC_GDPS_WindU_IsbL-0175_LatLon0.15_PT042H.grib2 2026-04-14 16:14 1.0M
20260414T12Z_MSC_GDPS_WindU_IsbL-0200_LatLon0.15_PT042H.grib2 2026-04-14 16:14 1.0M
20260414T12Z_MSC_GDPS_WindU_IsbL-0225_LatLon0.15_PT042H.grib2 2026-04-14 16:14 844K
20260414T12Z_MSC_GDPS_WindU_IsbL-0250_LatLon0.15_PT042H.grib2 2026-04-14 16:14 848K
20260414T12Z_MSC_GDPS_WindU_IsbL-0275_LatLon0.15_PT042H.grib2 2026-04-14 16:14 878K
20260414T12Z_MSC_GDPS_WindU_IsbL-0300_LatLon0.15_PT042H.grib2 2026-04-14 16:14 871K
20260414T12Z_MSC_GDPS_WindU_IsbL-0350_LatLon0.15_PT042H.grib2 2026-04-14 16:14 887K
20260414T12Z_MSC_GDPS_WindU_IsbL-0400_LatLon0.15_PT042H.grib2 2026-04-14 16:14 886K
20260414T12Z_MSC_GDPS_WindU_IsbL-0450_LatLon0.15_PT042H.grib2 2026-04-14 16:14 1.1M
20260414T12Z_MSC_GDPS_WindU_IsbL-0500_LatLon0.15_PT042H.grib2 2026-04-14 16:14 1.1M
20260414T12Z_MSC_GDPS_WindU_IsbL-0550_LatLon0.15_PT042H.grib2 2026-04-14 16:14 1.1M
20260414T12Z_MSC_GDPS_WindU_IsbL-0600_LatLon0.15_PT042H.grib2 2026-04-14 16:14 1.1M
20260414T12Z_MSC_GDPS_WindU_IsbL-0650_LatLon0.15_PT042H.grib2 2026-04-14 16:14 1.2M
20260414T12Z_MSC_GDPS_WindU_IsbL-0700_LatLon0.15_PT042H.grib2 2026-04-14 16:14 1.2M
20260414T12Z_MSC_GDPS_WindU_IsbL-0750_LatLon0.15_PT042H.grib2 2026-04-14 16:14 1.3M
20260414T12Z_MSC_GDPS_WindU_IsbL-0800_LatLon0.15_PT042H.grib2 2026-04-14 16:14 1.3M
20260414T12Z_MSC_GDPS_WindU_IsbL-0850_LatLon0.15_PT042H.grib2 2026-04-14 16:14 1.4M
20260414T12Z_MSC_GDPS_WindU_IsbL-0875_LatLon0.15_PT042H.grib2 2026-04-14 16:14 1.4M
20260414T12Z_MSC_GDPS_WindU_IsbL-0900_LatLon0.15_PT042H.grib2 2026-04-14 16:14 1.5M
20260414T12Z_MSC_GDPS_WindU_IsbL-0925_LatLon0.15_PT042H.grib2 2026-04-14 16:14 1.5M
20260414T12Z_MSC_GDPS_WindU_IsbL-0950_LatLon0.15_PT042H.grib2 2026-04-14 16:14 1.4M
20260414T12Z_MSC_GDPS_WindU_IsbL-0970_LatLon0.15_PT042H.grib2 2026-04-14 16:14 1.4M
20260414T12Z_MSC_GDPS_WindU_IsbL-0985_LatLon0.15_PT042H.grib2 2026-04-14 16:14 1.4M
20260414T12Z_MSC_GDPS_WindU_IsbL-1000_LatLon0.15_PT042H.grib2 2026-04-14 16:14 1.7M
20260414T12Z_MSC_GDPS_WindU_IsbL-1015_LatLon0.15_PT042H.grib2 2026-04-14 16:14 1.6M
20260414T12Z_MSC_GDPS_WindV_AGL-10m_LatLon0.15_PT042H.grib2 2026-04-14 16:14 1.3M
20260414T12Z_MSC_GDPS_WindV_AGL-120m_LatLon0.15_PT042H.grib2 2026-04-14 16:14 968K
20260414T12Z_MSC_GDPS_WindV_AGL-40m_LatLon0.15_PT042H.grib2 2026-04-14 16:14 961K
20260414T12Z_MSC_GDPS_WindV_AGL-80m_LatLon0.15_PT042H.grib2 2026-04-14 16:14 967K
20260414T12Z_MSC_GDPS_WindV_IsbL-0001_LatLon0.15_PT042H.grib2 2026-04-14 16:14 547K
20260414T12Z_MSC_GDPS_WindV_IsbL-0005_LatLon0.15_PT042H.grib2 2026-04-14 16:14 776K
20260414T12Z_MSC_GDPS_WindV_IsbL-0010_LatLon0.15_PT042H.grib2 2026-04-14 16:14 806K
20260414T12Z_MSC_GDPS_WindV_IsbL-0020_LatLon0.15_PT042H.grib2 2026-04-14 16:14 860K
20260414T12Z_MSC_GDPS_WindV_IsbL-0030_LatLon0.15_PT042H.grib2 2026-04-14 16:14 855K
20260414T12Z_MSC_GDPS_WindV_IsbL-0050_LatLon0.15_PT042H.grib2 2026-04-14 16:14 908K
20260414T12Z_MSC_GDPS_WindV_IsbL-0100_LatLon0.15_PT042H.grib2 2026-04-14 16:14 851K
20260414T12Z_MSC_GDPS_WindV_IsbL-0150_LatLon0.15_PT042H.grib2 2026-04-14 16:14 970K
20260414T12Z_MSC_GDPS_WindV_IsbL-0175_LatLon0.15_PT042H.grib2 2026-04-14 16:14 1.0M
20260414T12Z_MSC_GDPS_WindV_IsbL-0200_LatLon0.15_PT042H.grib2 2026-04-14 16:14 1.0M
20260414T12Z_MSC_GDPS_WindV_IsbL-0225_LatLon0.15_PT042H.grib2 2026-04-14 16:14 840K
20260414T12Z_MSC_GDPS_WindV_IsbL-0250_LatLon0.15_PT042H.grib2 2026-04-14 16:14 902K
20260414T12Z_MSC_GDPS_WindV_IsbL-0275_LatLon0.15_PT042H.grib2 2026-04-14 16:14 928K
20260414T12Z_MSC_GDPS_WindV_IsbL-0300_LatLon0.15_PT042H.grib2 2026-04-14 16:14 920K
20260414T12Z_MSC_GDPS_WindV_IsbL-0350_LatLon0.15_PT042H.grib2 2026-04-14 16:14 933K
20260414T12Z_MSC_GDPS_WindV_IsbL-0400_LatLon0.15_PT042H.grib2 2026-04-14 16:14 873K
20260414T12Z_MSC_GDPS_WindV_IsbL-0450_LatLon0.15_PT042H.grib2 2026-04-14 16:14 874K
20260414T12Z_MSC_GDPS_WindV_IsbL-0500_LatLon0.15_PT042H.grib2 2026-04-14 16:14 1.1M
20260414T12Z_MSC_GDPS_WindV_IsbL-0550_LatLon0.15_PT042H.grib2 2026-04-14 16:14 1.1M
20260414T12Z_MSC_GDPS_WindV_IsbL-0600_LatLon0.15_PT042H.grib2 2026-04-14 16:14 1.1M
20260414T12Z_MSC_GDPS_WindV_IsbL-0650_LatLon0.15_PT042H.grib2 2026-04-14 16:14 1.2M
20260414T12Z_MSC_GDPS_WindV_IsbL-0700_LatLon0.15_PT042H.grib2 2026-04-14 16:14 1.2M
20260414T12Z_MSC_GDPS_WindV_IsbL-0750_LatLon0.15_PT042H.grib2 2026-04-14 16:14 1.2M
20260414T12Z_MSC_GDPS_WindV_IsbL-0800_LatLon0.15_PT042H.grib2 2026-04-14 16:14 1.3M
20260414T12Z_MSC_GDPS_WindV_IsbL-0850_LatLon0.15_PT042H.grib2 2026-04-14 16:14 1.4M
20260414T12Z_MSC_GDPS_WindV_IsbL-0875_LatLon0.15_PT042H.grib2 2026-04-14 16:14 1.4M
20260414T12Z_MSC_GDPS_WindV_IsbL-0900_LatLon0.15_PT042H.grib2 2026-04-14 16:14 1.4M
20260414T12Z_MSC_GDPS_WindV_IsbL-0925_LatLon0.15_PT042H.grib2 2026-04-14 16:14 1.4M
20260414T12Z_MSC_GDPS_WindV_IsbL-0950_LatLon0.15_PT042H.grib2 2026-04-14 16:14 1.4M
20260414T12Z_MSC_GDPS_WindV_IsbL-0970_LatLon0.15_PT042H.grib2 2026-04-14 16:14 1.4M
20260414T12Z_MSC_GDPS_WindV_IsbL-0985_LatLon0.15_PT042H.grib2 2026-04-14 16:14 1.4M
20260414T12Z_MSC_GDPS_WindV_IsbL-1000_LatLon0.15_PT042H.grib2 2026-04-14 16:14 1.4M
20260414T12Z_MSC_GDPS_WindV_IsbL-1015_LatLon0.15_PT042H.grib2 2026-04-14 16:14 1.3M